Location: ???? ?????????
(44.3677°N, 135.2344°E)
Time: 04:01:07
(UTC+00:00)

BREEZE-M DEB (TANK) - Pass Details

Date: 19 May 2025
Orbit: 281 x 12174 km, 49.5° (Epoch: 15 June)

Event Time Altitude Azimuth Distance (km) Brightness Sun altitude
Rises 12:40:16 0° 274° (W) 10,738 9.4 -18.7°
Reaches altitude 10° 12:51:10 10° 278° (W) 7,469 8.5 -19.7°
Maximum altitude 13:08:23 62° 358° (N) 1,420 4.5 -21.2°
Enters shadow 13:12:55 11° 81° (E) 2,136 5.1 -21.6°
